GSAT0103 (GALILEO-FM3) (38857 NORAD) Tracking and Keplerian Element Data

This shows tracking and keplerian element data for the satellite.

Feedback or suggestion? Click here.




ElementValue
Catalog38857
NameGSAT0103 (GALILEO-FM3)
Epoch Orbit7664
Epoch Day34.2907073
Epoch Year2025
RAAN115.2515
Inclination55.5164
Eccentricity0.000453
Argument of Perigee268.677
Mean Anonmoly91.3198
Mean Motion1.70473345
Decay Rate-5E-08
L11 38857U 12055A 25034.29070730 -.00000005 00000+0 00000+0 0 9990
L22 38857 55.5164 115.2515 0004530 268.6770 91.3198 1.70473345 76645



Live tracking and technical data element details for GSAT0103 (GALILEO-FM3) (NORAD 38857). GSAT0103 (GALILEO-FM3) can be tracked NOW for your location showing map with azimuth and elevation plus other details from your city location.







IsCatalogInMostPopularTable: catalog: 38857, numindb: 683
Update: records affected: 1



GetName: 38857 GSAT0103 (GALILEO-FM3)

Hit Count: updated at: Sat, 17 May 2025 06:26:50 GMT